When you browse on this site, cookies collect data to enhance your experience and personalize the content and advertising you see.
Visit our Privacy Policy to learn more. By continuing to use the site, you agree to this use of cookies and data.
  • In Latvia
  • List of Countries
  • For 7 days
  • Water Temperature
  • Satellite Maps
  • Weather Map
  • Weather Widgets
  • user-avatar
    Login

    Hourly Weather Muranka

    Today, 16 June, Sunday

    Time Temperature Precipitation Wind Pressure Humidity
    00:00 +10°C° 0 mm 0 mps 754 mmHg 80%
    01:00 +10°C° 0 mm 0 mps 754 mmHg 81%
    02:00 +10°C° 0 mm 0 mps 754 mmHg 82%
    03:00 +10°C° 0 mm 1 mps 754 mmHg 83%
    04:00 +12°C° 0 mm 1 mps 754 mmHg 80%
    05:00 +13°C° 0 mm 1 mps 753 mmHg 77%
    06:00 +14°C° 0 mm 1 mps 753 mmHg 73%
    07:00 +15°C° 0 mm 1 mps 753 mmHg 70%
    08:00 +18°C° 0 mm 1 mps 753 mmHg 67%
    09:00 +18°C° 0 mm 2 mps 753 mmHg 63%
    10:00 +18°C° 0.1 mm 2 mps 753 mmHg 61%
    11:00 +19°C° 0.1 mm 2 mps 753 mmHg 58%
    12:00 +20°C° 0.1 mm 2 mps 753 mmHg 56%
    13:00 +20°C° 0.1 mm 2 mps 753 mmHg 55%
    14:00 +20°C° 0.1 mm 2 mps 753 mmHg 55%
    15:00 +21°C° 0.1 mm 2 mps 753 mmHg 54%
    16:00 +20°C° 0 mm 2 mps 753 mmHg 58%
    17:00 +20°C° 0 mm 2 mps 752 mmHg 62%
    18:00 +21°C° 0 mm 1 mps 752 mmHg 66%
    19:00 +19°C° 0 mm 1 mps 753 mmHg 70%
    20:00 +16°C° 0 mm 1 mps 753 mmHg 74%
    21:00 +14°C° 0 mm 1 mps 753 mmHg 78%
    22:00 +14°C° 0 mm 1 mps 753 mmHg 80%
    23:00 +14°C° 0 mm 1 mps 753 mmHg 83%

    Tomorrow, 17 June, Monday

    Time Temperature Precipitation Wind Pressure Humidity
    00:00 +13°C° 0 mm 1 mps 753 mmHg 85%
    01:00 +13°C° 0 mm 2 mps 753 mmHg 86%
    02:00 +13°C° 0 mm 2 mps 753 mmHg 88%
    03:00 +12°C° 0 mm 2 mps 754 mmHg 90%
    04:00 +13°C° 0 mm 2 mps 754 mmHg 86%
    05:00 +15°C° 0 mm 2 mps 754 mmHg 83%
    06:00 +16°C° 0 mm 2 mps 754 mmHg 80%
    07:00 +18°C° 0 mm 2 mps 754 mmHg 73%
    08:00 +19°C° 0 mm 3 mps 754 mmHg 65%
    09:00 +21°C° 0 mm 3 mps 754 mmHg 58%
    10:00 +22°C° 0 mm 3 mps 754 mmHg 56%
    11:00 +22°C° 0 mm 4 mps 754 mmHg 55%
    12:00 +23°C° 0 mm 4 mps 754 mmHg 53%
    13:00 +23°C° 0 mm 4 mps 754 mmHg 52%
    14:00 +23°C° 0 mm 4 mps 753 mmHg 52%
    15:00 +25°C° 0 mm 4 mps 753 mmHg 51%
    16:00 +23°C° 0 mm 4 mps 753 mmHg 56%
    17:00 +24°C° 0 mm 3 mps 753 mmHg 61%
    18:00 +23°C° 0 mm 2 mps 753 mmHg 66%
    19:00 +21°C° 0 mm 2 mps 753 mmHg 70%
    20:00 +19°C° 0 mm 2 mps 753 mmHg 73%
    21:00 +17°C° 0 mm 2 mps 753 mmHg 77%
    22:00 +17°C° 0 mm 2 mps 753 mmHg 79%
    23:00 +16°C° 0 mm 2 mps 754 mmHg 81%

    Day after tomorrow, 18 June, Tuesday

    Time Temperature Precipitation Wind Pressure Humidity
    00:00 +15°C° 0 mm 2 mps 754 mmHg 83%
    01:00 +15°C° 0 mm 2 mps 754 mmHg 84%
    02:00 +15°C° 0 mm 2 mps 754 mmHg 85%
    03:00 +15°C° 0 mm 2 mps 754 mmHg 87%
    04:00 +16°C° 0 mm 2 mps 754 mmHg 84%
    05:00 +17°C° 0 mm 2 mps 754 mmHg 82%
    06:00 +18°C° 0 mm 2 mps 754 mmHg 79%
    07:00 +19°C° 0 mm 2 mps 754 mmHg 77%
    08:00 +20°C° 0 mm 2 mps 754 mmHg 74%
    09:00 +21°C° 0 mm 1 mps 754 mmHg 72%
    10:00 +23°C° 0.6 mm 2 mps 754 mmHg 69%
    11:00 +24°C° 0.6 mm 2 mps 753 mmHg 65%
    12:00 +25°C° 0.6 mm 3 mps 753 mmHg 62%
    13:00 +25°C° 0.6 mm 3 mps 753 mmHg 62%
    14:00 +25°C° 0.6 mm 3 mps 753 mmHg 62%
    15:00 +26°C° 0.6 mm 3 mps 752 mmHg 62%
    16:00 +25°C° 0.4 mm 2 mps 752 mmHg 66%
    17:00 +24°C° 0.4 mm 2 mps 752 mmHg 71%
    18:00 +24°C° 0.4 mm 2 mps 752 mmHg 75%
    19:00 +21°C° 0.1 mm 2 mps 752 mmHg 78%
    20:00 +20°C° 0.1 mm 2 mps 752 mmHg 81%
    21:00 +18°C° 0.1 mm 2 mps 752 mmHg 84%
    22:00 +18°C° 0 mm 2 mps 752 mmHg 85%
    23:00 +17°C° 0 mm 2 mps 752 mmHg 86%

    19 June, Wednesday

    Time Temperature Precipitation Wind Pressure Humidity
    00:00 +17°C° 0 mm 2 mps 752 mmHg 87%
    01:00 +16°C° 0 mm 2 mps 752 mmHg 89%
    02:00 +16°C° 0 mm 2 mps 752 mmHg 90%
    03:00 +15°C° 0 mm 2 mps 752 mmHg 91%
    04:00 +16°C° 0 mm 2 mps 753 mmHg 89%
    05:00 +17°C° 0 mm 2 mps 753 mmHg 86%
    06:00 +18°C° 0 mm 2 mps 753 mmHg 84%
    07:00 +20°C° 0 mm 2 mps 753 mmHg 77%
    08:00 +21°C° 0 mm 2 mps 753 mmHg 71%
    09:00 +24°C° 0 mm 2 mps 753 mmHg 64%
    10:00 +25°C° 0.1 mm 2 mps 753 mmHg 61%
    11:00 +25°C° 0.1 mm 2 mps 753 mmHg 57%
    12:00 +26°C° 0.1 mm 2 mps 754 mmHg 54%
    13:00 +26°C° 0.3 mm 2 mps 754 mmHg 56%
    14:00 +26°C° 0.3 mm 2 mps 753 mmHg 57%
    15:00 +26°C° 0.3 mm 2 mps 753 mmHg 58%
    16:00 +25°C° 0.4 mm 2 mps 754 mmHg 64%
    17:00 +25°C° 0.4 mm 2 mps 754 mmHg 70%
    18:00 +24°C° 0.4 mm 2 mps 754 mmHg 76%
    19:00 +23°C° 0 mm 2 mps 754 mmHg 80%
    20:00 +20°C° 0 mm 2 mps 754 mmHg 83%
    21:00 +19°C° 0 mm 2 mps 755 mmHg 87%
    22:00 +18°C° 0 mm 2 mps 755 mmHg 89%
    23:00 +17°C° 0 mm 2 mps 755 mmHg 90%

    20 June, Thursday

    Time Temperature Precipitation Wind Pressure Humidity
    00:00 +17°C° 0 mm 2 mps 755 mmHg 92%
    01:00 +17°C° 0 mm 2 mps 755 mmHg 92%
    02:00 +16°C° 0 mm 2 mps 756 mmHg 92%
    03:00 +16°C° 0 mm 2 mps 756 mmHg 92%
    04:00 +17°C° 0 mm 2 mps 756 mmHg 89%
    05:00 +18°C° 0 mm 2 mps 756 mmHg 87%
    06:00 +19°C° 0 mm 2 mps 756 mmHg 84%
    07:00 +21°C° 0 mm 2 mps 756 mmHg 78%
    08:00 +23°C° 0 mm 2 mps 757 mmHg 71%
    09:00 +25°C° 0 mm 2 mps 757 mmHg 65%
    10:00 +26°C° 0 mm 3 mps 757 mmHg 61%
    11:00 +27°C° 0 mm 3 mps 757 mmHg 56%
    12:00 +27°C° 0 mm 3 mps 757 mmHg 52%
    13:00 +28°C° 0 mm 3 mps 757 mmHg 52%
    14:00 +28°C° 0 mm 3 mps 757 mmHg 51%
    15:00 +28°C° 0 mm 3 mps 757 mmHg 51%
    16:00 +27°C° 0 mm 2 mps 757 mmHg 55%
    17:00 +27°C° 0 mm 2 mps 757 mmHg 59%
    18:00 +27°C° 0 mm 1 mps 757 mmHg 63%
    19:00 +25°C° 0 mm 2 mps 757 mmHg 67%
    20:00 +23°C° 0 mm 2 mps 757 mmHg 71%
    21:00 +20°C° 0 mm 2 mps 758 mmHg 76%
    22:00 +19°C° 0 mm 2 mps 758 mmHg 77%
    23:00 +19°C° 0 mm 2 mps 758 mmHg 78%

    21 June, Friday

    Time Temperature Precipitation Wind Pressure Humidity
    00:00 +19°C° 0 mm 1 mps 758 mmHg 80%
    01:00 +18°C° 0 mm 2 mps 758 mmHg 82%
    02:00 +18°C° 0 mm 2 mps 758 mmHg 84%
    03:00 +17°C° 0 mm 2 mps 758 mmHg 86%
    04:00 +18°C° 0 mm 2 mps 758 mmHg 83%
    05:00 +19°C° 0 mm 2 mps 758 mmHg 80%
    06:00 +20°C° 0 mm 3 mps 758 mmHg 77%
    07:00 +22°C° 0 mm 3 mps 758 mmHg 72%
    08:00 +24°C° 0 mm 3 mps 758 mmHg 66%
    09:00 +26°C° 0 mm 3 mps 758 mmHg 61%
    10:00 +27°C° 0 mm 3 mps 758 mmHg 56%
    11:00 +28°C° 0 mm 3 mps 758 mmHg 51%
    12:00 +29°C° 0 mm 3 mps 758 mmHg 46%
    13:00 +29°C° 0 mm 3 mps 758 mmHg 46%
    14:00 +29°C° 0 mm 3 mps 758 mmHg 46%
    15:00 +29°C° 0 mm 2 mps 758 mmHg 46%
    16:00 +28°C° 0 mm 2 mps 758 mmHg 52%
    17:00 +27°C° 0 mm 2 mps 758 mmHg 57%
    18:00 +27°C° 0 mm 2 mps 757 mmHg 63%
    19:00 +25°C° 0 mm 2 mps 758 mmHg 66%
    20:00 +23°C° 0 mm 2 mps 758 mmHg 69%
    21:00 +21°C° 0 mm 2 mps 758 mmHg 72%
    22:00 +21°C° 0 mm 1 mps 758 mmHg 73%
    23:00 +20°C° 0 mm 1 mps 758 mmHg 75%
    Show more